Location: Deurze
(52.9838°N, 6.6090°E)
Time: 19:19:42
(UTC+00:00)

CZ-4B R/B - Pass Details

Date: 11 March 2026
Orbit: 699 x 798 km, 98.9° (Epoch: 20 April)

Event Time Altitude Azimuth Distance (km) Brightness Sun altitude
Exits shadow 20:30:18 72° 44° (NE) 834 3.5 -26.6°
Drops below altitude 10° 20:35:13 10° 347° (NNW) 2,346 6.6 -27.2°
Sets 20:37:32 0° 346° (NNW) 3,265 7.5 -27.5°
